This demonstration page uses our WeatherBlox Daily Observations layout. Learn more.

Hourly Observations for January 21, 2019

Temp ( °F °C ) Dew Point ( °F °C ) Humidity (%) Winds ( mph kmh ) Pressure ( in mb ) Visibility ( mi km ) Precip ( " mm )
12:15 am 00:15 Clear 18 -8 3 -16 53 53 NW 22 35 30.09 1019 10 16.09344 0 0
12:30 am 00:30 Clear 18 -8 3 -16 53 53 NNW 23 37 30.15 1021 10 16.09344 0 0
12:55 am 00:55 Partly Cloudy 18 -8 3 -16 53 53 NW 26 43 30.15 1021 10 16.09344 0 0
1:15 am 01:15 Partly Cloudy 16 -9 3 -16 57 57 NW 29 46 30.15 1021 10 16.09344 0 0
1:35 am 01:35 Clear 16 -9 3 -16 57 57 undefined N/A 30.15 1021 10 16.09344 0 0
1:55 am 01:55 Clear 16 -9 3 -16 57 57 NW 26 43 30.15 1021 10 16.09344 0 0
2:15 am 02:15 Clear 16 -9 3 -16 57 57 NW 20 31 30.18 1022 10 16.09344 0 0
2:35 am 02:35 Clear 14 -10 1 -17 57 57 NW 25 41 30.18 1022 10 16.09344 0 0
2:55 am 02:55 Clear 14 -10 1 -17 57 57 NW 24 39 30.18 1022 10 16.09344 0 0
3:15 am 03:15 Clear 14 -10 1 -17 57 57 NNW 18 30 30.18 1022 10 16.09344 0 0
3:35 am 03:35 Partly Cloudy 14 -10 1 -17 57 57 NW 26 43 30.18 1022 10 16.09344 0 0
3:55 am 03:55 Mostly Cloudy 14 -10 3 -16 62 62 NNW 18 30 30.21 1023 10 16.09344 0 0
4:15 am 04:15 Mostly Cloudy 14 -10 3 -16 62 62 NW 13 20 30.21 1023 10 16.09344 0 0
4:35 am 04:35 Partly Cloudy 14 -10 3 -16 62 62 NW 23 37 30.21 1023 10 16.09344 0 0
4:55 am 04:55 Cloudy 14 -10 5 -15 67 67 WNW 21 33 30.24 1024 10 16.09344 0 0
5:15 am 05:15 Cloudy 14 -10 5 -15 67 67 NW 20 31 30.24 1024 10 16.09344 0 0
5:35 am 05:35 Cloudy 14 -10 3 -16 62 62 NW 25 41 30.24 1024 10 16.09344 0 0
5:55 am 05:55 Mostly Cloudy 14 -10 1 -17 57 57 NW 14 22 30.24 1024 10 16.09344 0 0
6:15 am 06:15 Partly Cloudy 14 -10 1 -17 57 57 NW 15 24 30.27 1025 10 16.09344 0 0
6:35 am 06:35 Mostly Cloudy 14 -10 1 -17 57 57 NW 21 33 30.27 1025 10 16.09344 0 0
6:55 am 06:55 Partly Cloudy 14 -10 1 -17 57 57 WNW 23 37 30.27 1025 10 16.09344 0 0
7:15 am 07:15 Partly Cloudy 14 -10 1 -17 57 57 undefined N/A 30.27 1025 10 16.09344 0 0
7:35 am 07:35 Partly Cloudy 14 -10 1 -17 57 57 NW 16 26 30.3 1026 10 16.09344 0 0
7:55 am 07:55 Partly Cloudy 14 -10 1 -17 57 57 NW 20 31 30.33 1027 10 16.09344 0 0
8:15 am 08:15 Partly Cloudy 14 -10 1 -17 57 57 NNW 14 22 30.33 1027 10 16.09344 0 0
8:35 am 08:35 Sunny 14 -10 0 -18 52 52 NW 15 24 30.36 1028 10 16.09344 0 0
8:55 am 08:55 Sunny 14 -10 1 -17 57 57 NW 15 24 30.36 1028 10 16.09344 0 0
9:15 am 09:15 Sunny 14 -10 1 -17 57 57 NW 22 35 30.36 1028 10 16.09344 0 0
9:35 am 09:35 Sunny 16 -9 1 -17 53 53 NNW 17 28 30.39 1029 10 16.09344 0 0
9:55 am 09:55 Partly Cloudy 14 -10 0 -18 52 52 N 12 19 30.39 1029 10 16.09344 0 0
10:15 am 10:15 Mostly Cloudy 16 -9 1 -17 53 53 WNW 16 26 30.42 1030 10 16.09344 0 0
10:35 am 10:35 Mostly Cloudy 18 -8 1 -17 49 49 NW 10 17 30.45 1031 10 16.09344 0 0
10:55 am 10:55 Partly Cloudy 18 -8 1 -17 49 49 NW 26 43 30.42 1030 10 16.09344 0 0
11:15 am 11:15 Sunny 18 -8 1 -17 49 49 NNW 23 37 30.42 1030 10 16.09344 0 0
11:35 am 11:35 Partly Cloudy 18 -8 1 -17 49 49 NNW 10 17 30.42 1030 10 16.09344 0 0
11:55 am 11:55 Sunny 19 -7 1 -17 45 45 NNW 22 35 30.42 1030 10 16.09344 0 0
12:15 pm 12:15 Sunny 19 -7 1 -17 45 45 NW 25 41 30.42 1030 10 16.09344 0 0
12:35 pm 12:35 Sunny 19 -7 1 -17 45 45 NNW 23 37 30.42 1030 10 16.09344 0 0
12:55 pm 12:55 Sunny 19 -7 3 -16 49 49 NNW 20 31 30.42 1030 10 16.09344 0 0
1:15 pm 13:15 Sunny 19 -7 3 -16 49 49 NNW 23 37 30.42 1030 10 16.09344 0 0
1:35 pm 13:35 Sunny 21 -6 3 -16 45 45 N 15 24 30.42 1030 10 16.09344 0 0
1:55 pm 13:55 Sunny 21 -6 3 -16 45 45 NW 17 28 30.42 1030 10 16.09344 0 0
2:15 pm 14:15 Sunny 21 -6 3 -16 45 45 NW 13 20 30.42 1030 10 16.09344 0 0
2:35 pm 14:35 Sunny 21 -6 5 -15 49 49 NW 21 33 30.45 1031 10 16.09344 0 0
2:55 pm 14:55 Sunny 21 -6 5 -15 49 49 NW 24 39 30.45 1031 10 16.09344 0 0
3:15 pm 15:15 Sunny 21 -6 5 -15 49 49 NW 24 39 30.45 1031 10 16.09344 0 0
3:35 pm 15:35 Sunny 21 -6 5 -15 49 49 NNW 20 31 30.45 1031 10 16.09344 0 0
3:55 pm 15:55 Sunny 21 -6 3 -16 45 45 NNW 15 24 30.45 1031 10 16.09344 0 0
4:15 pm 16:15 Sunny 21 -6 5 -15 49 49 NW 15 24 30.48 1032 10 16.09344 0 0
4:35 pm 16:35 Sunny 21 -6 3 -16 45 45 NW 20 31 30.48 1032 10 16.09344 0 0
4:55 pm 16:55 Sunny 21 -6 3 -16 45 45 NNW 22 35 30.48 1032 10 16.09344 0 0
5:15 pm 17:15 Sunny 19 -7 3 -16 49 49 NW 12 19 30.5 1033 10 16.09344 0 0
5:35 pm 17:35 Clear 19 -7 3 -16 49 49 NNW 6 9 30.5 1033 10 16.09344 0 0
5:55 pm 17:55 Clear 19 -7 3 -16 49 49 NNW 10 17 30.5 1033 10 16.09344 0 0
6:15 pm 18:15 Clear 19 -7 5 -15 53 53 NW 12 19 30.53 1034 10 16.09344 0 0
6:35 pm 18:35 Clear 19 -7 5 -15 53 53 NW 12 19 30.56 1035 10 16.09344 0 0
6:55 pm 18:55 Clear 19 -7 5 -15 53 53 NW 14 22 30.56 1035 10 16.09344 0 0
7:15 pm 19:15 Clear 19 -7 5 -15 53 53 NW 15 24 30.56 1035 10 16.09344 0 0
7:35 pm 19:35 Clear 19 -7 5 -15 53 53 NW 9 15 30.56 1035 10 16.09344 0 0
7:55 pm 19:55 Clear 19 -7 5 -15 53 53 NW 16 26 30.56 1035 10 16.09344 0 0
8:15 pm 20:15 Clear 18 -8 5 -15 58 58 NW 15 24 30.56 1035 10 16.09344 0 0
8:35 pm 20:35 Clear 18 -8 5 -15 58 58 NW 9 15 30.59 1036 10 16.09344 0 0
8:55 pm 20:55 Clear 18 -8 5 -15 58 58 NW 14 22 30.59 1036 10 16.09344 0 0
9:15 pm 21:15 Clear 18 -8 5 -15 58 58 NW 14 22 30.59 1036 10 16.09344 0 0
9:35 pm 21:35 Clear 18 -8 5 -15 58 58 NNW 12 19 30.59 1036 10 16.09344 0 0
9:55 pm 21:55 Clear 18 -8 5 -15 58 58 NNW 15 24 30.59 1036 10 16.09344 0 0
10:15 pm 22:15 Clear 18 -8 5 -15 58 58 NNW 8 13 30.59 1036 10 16.09344 0 0
10:35 pm 22:35 Clear 18 -8 5 -15 58 58 NNW 14 22 30.62 1037 10 16.09344 0 0
10:55 pm 22:55 Clear 18 -8 5 -15 58 58 NNW 10 17 30.62 1037 10 16.09344 0 0
11:15 pm 23:15 Clear 18 -8 5 -15 58 58 NW 12 19 30.62 1037 10 16.09344 0 0
11:35 pm 23:35 Clear 16 -9 5 -15 62 62 NW 6 9 30.62 1037 10 16.09344 0 0
11:55 pm 23:55 Clear 16 -9 5 -15 62 62 NW 7 11 30.62 1037 10 16.09344 0 0

Powered by AerisWeather